Liberty, KS

5:13 AM CST on December 03, 2016 (GMT -0600)
Coffeyville Municipal

Weather History for KCFV - August, 2014

Change the Weather History Date:

Friday, August 8, 2014

  Actual Average Record
Temperature  
Mean Temperature 82 °F -  
Max Temperature 91 °F 89 °F 107 °F (2012)
Min Temperature 73 °F 65 °F 59 °F (2004)
Cooling Degree Days 17    
Growing Degree Days 32 (Base 50)    
Moisture  
Dew Point 72 °F    
Average Humidity 83    
Maximum Humidity 100    
Minimum Humidity 48    
Precipitation  
Precipitation 0.48 in - - ()
Sea Level Pressure  
Sea Level Pressure 29.91 in    
Wind  
Wind Speed 7 mph (ENE)    
Max Wind Speed 31 mph    
Max Gust Speed 44 mph    
Visibility 8 miles    
Events Fog , Rain , Thunderstorm    
Averages and records for this station are not official NWS values.
T = Trace of Precipitation, MM = Missing Value Source: NWS Daily Summary

Daily Weather History Graph

Daily Weather History Graph

Search for Another Location

Airport or City:

Trip Planner

Search our weather history database for the weather conditions in past years. The results will help you decide how hot, cold, wet, or windy it might be!

Date:

Astronomy

Aug. 08, 2014 Rise Set
Actual Time 6:33 AM CDT 8:22 PM CDT
Civil Twilight 6:04 AM CDT 8:50 PM CDT
Nautical Twilight 5:30 AM CDT 9:24 PM CDT
Astronomical Twilight 4:54 AM CDT 10:00 PM CDT
Moon 6:34 PM CDT (8/8) 4:07 AM CDT (8/8)
Length of Visible Light 14h 45m
Length of Day
13h 49m
Waxing Gibbous, 94% of the Moon is Illuminated
Aug 8
Waxing Gibbous
Aug 10
Full
Aug 17
Last Quarter
Aug 25
New
Sep 2
First Quarter

Hourly Weather History & Observations

Time (CDT) Temp. Heat Index Dew Point Humidity Pressure Visibility Wind Dir Wind Speed Gust Speed Precip Events Conditions
12:52 AM 77.0 °F - 73.9 °F 90% 29.88 in 10.0 mi North 3.5 mph - N/A   Partly Cloudy
1:52 AM 75.9 °F - 73.0 °F 91% 29.88 in 10.0 mi NNE 5.8 mph - N/A   Clear
2:52 AM 75.0 °F - 73.0 °F 94% 29.87 in 9.0 mi NNE 4.6 mph - N/A   Clear
3:52 AM 75.0 °F - 72.0 °F 90% 29.88 in 10.0 mi NNE 4.6 mph - N/A   Clear
4:52 AM 75.0 °F - 72.0 °F 90% 29.91 in 10.0 mi Calm Calm - N/A   Mostly Cloudy
5:52 AM 73.0 °F - 72.0 °F 96% 29.89 in 9.0 mi ENE 5.8 mph - N/A   Clear
6:52 AM 73.9 °F - 72.0 °F 93% 29.91 in 7.0 mi East 4.6 mph - N/A   Clear
7:52 AM 75.0 °F - 72.0 °F 90% 29.94 in 10.0 mi NE 3.5 mph - N/A   Clear
8:52 AM 75.9 °F - 72.0 °F 87% 29.95 in 10.0 mi East 3.5 mph - N/A   Clear
9:52 AM 78.1 °F - 72.0 °F 81% 29.93 in 10.0 mi NE 8.1 mph - N/A   Clear
10:52 AM 82.9 °F 88.0 °F 72.0 °F 69% 29.90 in 10.0 mi NE 11.5 mph - N/A   Clear
11:52 AM 84.9 °F 89.4 °F 70.0 °F 61% 29.91 in 10.0 mi ENE 10.4 mph - N/A   Clear
12:52 PM 89.1 °F 94.1 °F 70.0 °F 53% 29.91 in 10.0 mi NE 8.1 mph - N/A   Clear
1:52 PM 89.1 °F 94.1 °F 70.0 °F 53% 29.91 in 10.0 mi Variable 4.6 mph - N/A   Clear
2:52 PM 91.9 °F 97.4 °F 70.0 °F 48% 29.89 in 10.0 mi NNE 6.9 mph - N/A   Clear
3:52 PM 90.0 °F 94.5 °F 69.1 °F 50% 29.88 in 10.0 mi NE 6.9 mph - N/A   Mostly Cloudy
4:52 PM 87.1 °F 92.0 °F 70.0 °F 57% 29.87 in 10.0 mi ESE 8.1 mph - N/A   Overcast
5:33 PM 84.9 °F 90.1 °F 71.1 °F 63% 29.88 in 10.0 mi ESE 10.4 mph - N/A Thunderstorm Mostly Cloudy
5:47 PM 84.2 °F 89.6 °F 71.6 °F 66% 29.90 in 10.0 mi Variable 3.5 mph - N/A Thunderstorm Thunderstorm
5:52 PM 82.0 °F 86.7 °F 72.0 °F 71% 29.89 in 10.0 mi North 17.3 mph 25.3 mph N/A Thunderstorm Thunderstorm
5:57 PM 78.1 °F - 73.0 °F 84% 29.91 in 1.0 mi North 31.1 mph 39.1 mph 0.10 in Rain , Thunderstorm Light Thunderstorms and Rain
6:00 PM 75.9 °F - 73.0 °F 91% 29.91 in 0.5 mi ENE 17.3 mph 43.7 mph 0.17 in Fog , Rain , Thunderstorm Heavy Thunderstorms and Rain
6:13 PM 75.0 °F - 73.0 °F 94% 29.91 in 2.5 mi NNE 17.3 mph 26.5 mph 0.22 in Rain , Thunderstorm Light Thunderstorms and Rain
6:20 PM 75.0 °F - 73.9 °F 96% 29.94 in 10.0 mi NNE 12.7 mph 20.7 mph 0.22 in Thunderstorm Thunderstorm
6:33 PM 73.9 °F - 73.0 °F 97% 29.93 in 10.0 mi East 10.4 mph - 0.22 in Rain , Thunderstorm Light Rain
6:45 PM 73.9 °F - 73.9 °F 100% 29.93 in 1.8 mi East 4.6 mph - 0.32 in Rain , Thunderstorm Heavy Thunderstorms and Rain
6:52 PM 73.9 °F - 73.9 °F 100% 29.92 in 1.5 mi SE 4.6 mph - 0.40 in Rain , Thunderstorm Heavy Thunderstorms and Rain
7:01 PM 73.9 °F - 73.9 °F 100% 29.92 in 2.0 mi SE 11.5 mph - 0.06 in Rain Heavy Rain
7:12 PM 73.9 °F - 73.0 °F 97% 29.93 in 8.0 mi East 10.4 mph - 0.08 in Rain Light Rain
7:52 PM 75.0 °F - 75.0 °F 100% 29.91 in 10.0 mi East 8.1 mph - 0.08 in   Scattered Clouds
8:52 PM 73.9 °F - 72.0 °F 93% 29.91 in 10.0 mi South 3.5 mph - N/A   Mostly Cloudy
9:52 PM 73.9 °F - 72.0 °F 93% 29.93 in 10.0 mi Calm Calm - N/A   Mostly Cloudy
10:52 PM 73.9 °F - 72.0 °F 93% 29.94 in 10.0 mi Calm Calm - N/A   Clear
11:52 PM 73.0 °F - 72.0 °F 96% 29.94 in 10.0 mi NNE 4.6 mph - N/A   Clear